QPF
0.00 0.00 0.00 0.00 0.00 0.00 0.00 0.00 0.00 0.00 0.00 0.00 0.00 0.00 0.00 0.00 0.00 0.00 0.00 0.00 0.00 0.00 0.00 0.00 0.00 0.00 0.00 0.00 0.00 0.00 0.00 0.00 0.00 0.00 0.00 0.00 0.00 0.00 0.00 0.00 0.00 0.00 0.00
0.00 0.00 0.00 0.00 0.00 0.00 0.00 0.00 0.00 0.00 0.00 0.00 0.00 0.00 0.00 0.00 0.00 0.00 0.00 0.00 0.00 0.00 0.00 0.00 0.00 0.00 0.00 0.00 0.00 0.00 0.01 0.01 0.01 0.01 0.01 0.01 0.01 0.01 0.01 0.01 0.01 0.01 0.01
0.00 0.00 0.00 0.00 0.00 0.00 0.00 0.00 0.00 0.00 0.00 0.00 0.00 0.00 0.00 0.00 0.00 0.00 0.00 0.00 0.00 0.00 0.00 0.00 0.00 0.00 0.00 0.00 0.00 0.00 0.01 0.01 0.01 0.01 0.02 0.02 0.02 0.02 0.02 0.02 0.02 0.01 0.01
0.00 0.00 0.00 0.00 0.00 0.00 0.00 0.00 0.00 0.00 0.00 0.00 0.00 0.00 0.00 0.00 0.00 0.00 0.00 0.00 0.00 0.00 0.00 0.00 0.00 0.00 0.00 0.00 0.00 0.00 0.00 0.01 0.01 0.01 0.02 0.02 0.02 0.03 0.03 0.03 0.03 0.03 0.02
0.00 0.00 0.00 0.00 0.00 0.00 0.00 0.00 0.00 0.00 0.00 0.00 0.00 0.00 0.00 0.00 0.00 0.00 0.00 0.00 0.00 0.00 0.00 0.00 0.00 0.00 0.00 0.00 0.00 0.00 0.00 0.00 0.01 0.01 0.02 0.02 0.03 0.03 0.04 0.04 0.04 0.04 0.04
0.00 0.00 0.00 0.00 0.00 0.00 0.00 0.00 0.00 0.00 0.00 0.00 0.00 0.00 0.00 0.00 0.00 0.00 0.00 0.00 0.00 0.00 0.00 0.00 0.00 0.00 0.00 0.00 0.00 0.00 0.00 0.00 0.00 0.01 0.01 0.02 0.02 0.03 0.04 0.05 0.05 0.05 0.05
0.00 0.00 0.00 0.00 0.00 0.00 0.00 0.00 0.00 0.00 0.00 0.00 0.00 0.00 0.00 0.00 0.00 0.00 0.00 0.00 0.00 0.00 0.00 0.00 0.00 0.00 0.00 0.00 0.00 0.00 0.00 0.00 0.00 0.00 0.01 0.01 0.02 0.03 0.04 0.05 0.06 0.06 0.07
0.00 0.00 0.00 0.00 0.00 0.00 0.00 0.00 0.00 0.00 0.00 0.00 0.00 0.00 0.00 0.00 0.00 0.00 0.00 0.00 0.00 0.00 0.00 0.00 0.00 0.00 0.00 0.00 0.00 0.00 0.00 0.00 0.00 0.00 0.00 0.00 0.01 0.02 0.03 0.04 0.05 0.07 0.08
0.00 0.00 0.00 0.00 0.00 0.00 0.00 0.00 0.00 0.00 0.00 0.00 0.00 0.00 0.00 0.00 0.00 0.00 0.00 0.00 0.00 0.00 0.00 0.00 0.00 0.00 0.00 0.00 0.00 0.00 0.00 0.00 0.00 0.00 0.00 0.00 0.00 0.01 0.02 0.03 0.04 0.06 0.07
0.00 0.00 0.00 0.00 0.00 0.00 0.00 0.00 0.00 0.00 0.00 0.00 0.00 0.00 0.00 0.00 0.00 0.00 0.00 0.00 0.00 0.00 0.00 0.00 0.00 0.00 0.00 0.00 0.00 0.00 0.00 0.00 0.00 0.00 0.00 0.00 0.01 0.01 0.02 0.03 0.04 0.05 0.06
0.00 0.00 0.00 0.00 0.00 0.00 0.00 0.00 0.00 0.00 0.00 0.00 0.00 0.00 0.00 0.00 0.00 0.00 0.00 0.00 0.00 0.00 0.00 0.00 0.00 0.00 0.00 0.00 0.00 0.00 0.00 0.00 0.00 0.00 0.00 0.00 0.01 0.01 0.02 0.03 0.04 0.05 0.06
0.00 0.00 0.00 0.00 0.00 0.00 0.00 0.00 0.00 0.00 0.00 0.00 0.00 0.00 0.00 0.00 0.00 0.00 0.00 0.00 0.00 0.00 0.00 0.00 0.00 0.00 0.00 0.00 0.00 0.00 0.00 0.00 0.00 0.00 0.00 0.00 0.00 0.01 0.02 0.02 0.03 0.03 0.04
0.00 0.00 0.00 0.00 0.00 0.00 0.00 0.00 0.00 0.00 0.00 0.00 0.00 0.00 0.00 0.00 0.00 0.00 0.00 0.00 0.00 0.00 0.00 0.00 0.00 0.00 0.00 0.00 0.00 0.00 0.00 0.00 0.00 0.00 0.00 0.00 0.00 0.01 0.01 0.01 0.02 0.02 0.02
0.00 0.00 0.00 0.00 0.00 0.00 0.00 0.00 0.00 0.00 0.00 0.00 0.00 0.00 0.00 0.00 0.00 0.00 0.00 0.00 0.00 0.00 0.00 0.00 0.00 0.00 0.00 0.00 0.00 0.00 0.00 0.00 0.00 0.00 0.00 0.00 0.00 0.01 0.01 0.01 0.01 0.01 0.01
0.00 0.00 0.00 0.00 0.00 0.00 0.00 0.00 0.00 0.00 0.00 0.00 0.00 0.00 0.00 0.00 0.00 0.00 0.00 0.00 0.00 0.00 0.00 0.00 0.00 0.00 0.00 0.00 0.00 0.00 0.00 0.00 0.00 0.00 0.00 0.01 0.01 0.01 0.01 0.01 0.02 0.02 0.02
0.00 0.00 0.00 0.00 0.00 0.00 0.00 0.00 0.00 0.00 0.00 0.00 0.00 0.00 0.00 0.00 0.00 0.00 0.00 0.00 0.00 0.00 0.00 0.00 0.00 0.00 0.00 0.00 0.00 0.00 0.00 0.00 0.00 0.00 0.00 0.01 0.01 0.01 0.02 0.02 0.02 0.03 0.03
0.00 0.00 0.00 0.00 0.00 0.00 0.00 0.00 0.00 0.00 0.00 0.00 0.00 0.00 0.00 0.00 0.00 0.00 0.00 0.00 0.00 0.00 0.00 0.00 0.00 0.00 0.00 0.00 0.00 0.00 0.00 0.00 0.00 0.00 0.00 0.01 0.01 0.02 0.02 0.02 0.03 0.03 0.03
0.00 0.00 0.00 0.00 0.00 0.00 0.00 0.00 0.00 0.00 0.00 0.00 0.00 0.00 0.00 0.00 0.00 0.00 0.00 0.00 0.00 0.00 0.00 0.00 0.00 0.00 0.00 0.00 0.00 0.00 0.00 0.00 0.00 0.00 0.00 0.01 0.01 0.02 0.02 0.03 0.03 0.03 0.04
0.00 0.00 0.00 0.00 0.00 0.00 0.00 0.00 0.00 0.00 0.00 0.00 0.00 0.00 0.00 0.00 0.00 0.00 0.00 0.00 0.00 0.00 0.00 0.01 0.01 0.00 0.00 0.00 0.00 0.00 0.00 0.00 0.00 0.00 0.00 0.01 0.01 0.01 0.02 0.03 0.03 0.03 0.04
0.00 0.00 0.00 0.00 0.00 0.00 0.00 0.00 0.00 0.00 0.00 0.00 0.00 0.00 0.00 0.00 0.00 0.00 0.00 0.00 0.00 0.01 0.01 0.02 0.03 0.02 0.01 0.01 0.01 0.01 0.01 0.01 0.00 0.00 0.00 0.00 0.01 0.01 0.01 0.02 0.02 0.03 0.03
0.00 0.00 0.00 0.00 0.00 0.00 0.00 0.00 0.00 0.00 0.00 0.00 0.00 0.00 0.00 0.00 0.00 0.01 0.01 0.01 0.02 0.02 0.03 0.05 0.05 0.04 0.03 0.02 0.02 0.02 0.02 0.01 0.01 0.00 0.00 0.00 0.00 0.00 0.00 0.00 0.00 0.01 0.01
0.00 0.00 0.00 0.00 0.00 0.00 0.00 0.00 0.00 0.00 0.00 0.00 0.00 0.00 0.00 0.00 0.00 0.01 0.01 0.02 0.03 0.03 0.03 0.04 0.05 0.05 0.03 0.02 0.02 0.02 0.02 0.03 0.03 0.01 0.01 0.00 0.00 0.00 0.00 0.00 0.00 0.00 0.00
0.00 0.00 0.00 0.00 0.00 0.00 0.00 0.00 0.00 0.00 0.00 0.00 0.00 0.00 0.00 0.00 0.00 0.00 0.00 0.01 0.01 0.01 0.03 0.04 0.05 0.03 0.02 0.01 0.02 0.02 0.03 0.03 0.03 0.01 0.01 0.02 0.00 0.00 0.00 0.00 0.00 0.00 0.01
0.00 0.00 0.00 0.00 0.00 0.00 0.00 0.00 0.00 0.00 0.00 0.00 0.00 0.00 0.00 0.00 0.00 0.01 0.01 0.01 0.01 0.01 0.01 0.02 0.02 0.02 0.02 0.02 0.03 0.06 0.08 0.09 0.07 0.02 0.01 0.03 0.01 0.00 0.00 0.00 0.00 0.00 0.01
0.00 0.00 0.00 0.00 0.00 0.00 0.00 0.00 0.00 0.00 0.00 0.00 0.00 0.00 0.00 0.00 0.01 0.03 0.03 0.02 0.02 0.01 0.02 0.03 0.04 0.05 0.06 0.07 0.08 0.11 0.14 0.16 0.14 0.05 0.01 0.02 0.01 0.00 0.00 0.00 0.00 0.00 0.00
0.00 0.00 0.00 0.00 0.00 0.00 0.00 0.00 0.00 0.00 0.00 0.00 0.00 0.00 0.01 0.01 0.02 0.04 0.03 0.03 0.05 0.03 0.02 0.02 0.03 0.03 0.03 0.02 0.03 0.04 0.06 0.11 0.12 0.09 0.02 0.02 0.01 0.01 0.02 0.00 0.00 0.00 0.00
MSLP
1023.01 1023.12 1023.15 1023.14 1023.13 1023.13 1023.16 1023.22 1023.28 1023.35 1023.39 1023.40 1023.37 1023.32 1023.25 1023.16 1023.06 1022.94 1022.80 1022.62 1022.40 1022.13 1021.84 1021.54 1021.26 1021.01 1020.80 1020.64 1020.51 1020.39 1020.26 1020.13 1019.97 1019.81 1019.66 1019.55 1019.49 1019.48 1019.52 1019.60 1019.69 1019.77 1019.83
1022.69 1022.76 1022.78 1022.78 1022.78 1022.80 1022.85 1022.93 1023.01 1023.09 1023.14 1023.15 1023.12 1023.06 1022.96 1022.85 1022.73 1022.59 1022.43 1022.24 1022.02 1021.77 1021.49 1021.19 1020.90 1020.64 1020.40 1020.20 1020.01 1019.85 1019.68 1019.51 1019.34 1019.17 1019.03 1018.92 1018.86 1018.85 1018.89 1018.94 1019.01 1019.06 1019.10
1022.39 1022.45 1022.47 1022.48 1022.51 1022.56 1022.64 1022.75 1022.86 1022.95 1023.00 1023.01 1022.96 1022.86 1022.74 1022.59 1022.42 1022.25 1022.06 1021.85 1021.63 1021.38 1021.11 1020.83 1020.55 1020.28 1020.03 1019.79 1019.57 1019.37 1019.16 1018.96 1018.77 1018.59 1018.44 1018.32 1018.25 1018.22 1018.21 1018.23 1018.25 1018.26 1018.27
1022.17 1022.23 1022.27 1022.31 1022.38 1022.47 1022.59 1022.72 1022.85 1022.94 1022.99 1022.97 1022.89 1022.76 1022.59 1022.38 1022.17 1021.94 1021.71 1021.48 1021.24 1020.99 1020.73 1020.47 1020.21 1019.95 1019.70 1019.45 1019.21 1018.97 1018.74 1018.51 1018.28 1018.08 1017.90 1017.76 1017.65 1017.57 1017.52 1017.48 1017.44 1017.39 1017.35
1022.06 1022.13 1022.21 1022.29 1022.40 1022.54 1022.69 1022.84 1022.97 1023.06 1023.08 1023.04 1022.92 1022.74 1022.52 1022.25 1021.97 1021.69 1021.41 1021.14 1020.88 1020.63 1020.38 1020.14 1019.90 1019.67 1019.43 1019.18 1018.93 1018.67 1018.40 1018.13 1017.87 1017.62 1017.41 1017.21 1017.05 1016.92 1016.80 1016.69 1016.58 1016.47 1016.37
1022.06 1022.15 1022.26 1022.39 1022.54 1022.71 1022.88 1023.04 1023.17 1023.24 1023.24 1023.16 1023.01 1022.79 1022.51 1022.19 1021.86 1021.52 1021.19 1020.88 1020.59 1020.33 1020.09 1019.86 1019.65 1019.44 1019.21 1018.97 1018.71 1018.43 1018.13 1017.81 1017.50 1017.21 1016.93 1016.68 1016.45 1016.25 1016.06 1015.88 1015.71 1015.54 1015.38
1022.13 1022.24 1022.38 1022.55 1022.73 1022.92 1023.10 1023.25 1023.36 1023.41 1023.39 1023.29 1023.11 1022.87 1022.56 1022.20 1021.82 1021.43 1021.05 1020.70 1020.38 1020.10 1019.85 1019.64 1019.44 1019.24 1019.03 1018.79 1018.52 1018.21 1017.87 1017.51 1017.14 1016.78 1016.44 1016.12 1015.84 1015.57 1015.33 1015.09 1014.86 1014.64 1014.44
1022.23 1022.35 1022.51 1022.69 1022.89 1023.08 1023.25 1023.40 1023.49 1023.52 1023.49 1023.38 1023.20 1022.94 1022.62 1022.25 1021.85 1021.42 1021.01 1020.61 1020.25 1019.94 1019.68 1019.45 1019.25 1019.05 1018.84 1018.59 1018.30 1017.96 1017.57 1017.15 1016.73 1016.30 1015.90 1015.53 1015.20 1014.89 1014.60 1014.33 1014.07 1013.82 1013.60
1022.32 1022.44 1022.60 1022.78 1022.97 1023.15 1023.30 1023.42 1023.50 1023.52 1023.48 1023.39 1023.22 1022.99 1022.69 1022.33 1021.92 1021.48 1021.03 1020.59 1020.19 1019.84 1019.53 1019.28 1019.05 1018.84 1018.60 1018.33 1018.00 1017.62 1017.18 1016.72 1016.23 1015.76 1015.31 1014.90 1014.53 1014.20 1013.90 1013.62 1013.36 1013.11 1012.89
1022.37 1022.48 1022.63 1022.80 1022.96 1023.11 1023.23 1023.32 1023.38 1023.39 1023.37 1023.30 1023.18 1022.99 1022.73 1022.40 1022.01 1021.56 1021.08 1020.61 1020.15 1019.74 1019.39 1019.08 1018.81 1018.55 1018.28 1017.97 1017.60 1017.17 1016.69 1016.17 1015.65 1015.13 1014.66 1014.23 1013.85 1013.53 1013.24 1012.98 1012.74 1012.51 1012.30
1022.40 1022.50 1022.62 1022.76 1022.89 1022.99 1023.07 1023.12 1023.15 1023.17 1023.16 1023.13 1023.05 1022.92 1022.72 1022.43 1022.06 1021.61 1021.11 1020.60 1020.09 1019.62 1019.20 1018.84 1018.51 1018.19 1017.87 1017.50 1017.09 1016.61 1016.09 1015.54 1014.98 1014.45 1013.96 1013.53 1013.17 1012.86 1012.61 1012.38 1012.18 1011.99 1011.81
1022.44 1022.52 1022.62 1022.72 1022.79 1022.84 1022.86 1022.87 1022.87 1022.87 1022.87 1022.87 1022.85 1022.77 1022.62 1022.37 1022.03 1021.59 1021.07 1020.52 1019.97 1019.44 1018.96 1018.52 1018.13 1017.76 1017.37 1016.96 1016.50 1015.98 1015.42 1014.84 1014.26 1013.72 1013.23 1012.82 1012.48 1012.21 1011.99 1011.81 1011.66 1011.50 1011.35
1022.51 1022.57 1022.64 1022.69 1022.71 1022.69 1022.65 1022.60 1022.55 1022.53 1022.54 1022.56 1022.56 1022.53 1022.41 1022.20 1021.88 1021.44 1020.92 1020.34 1019.75 1019.17 1018.63 1018.14 1017.69 1017.27 1016.83 1016.37 1015.87 1015.32 1014.73 1014.12 1013.54 1012.99 1012.51 1012.12 1011.80 1011.57 1011.38 1011.24 1011.12 1011.00 1010.87
1022.62 1022.67 1022.70 1022.70 1022.65 1022.56 1022.44 1022.33 1022.23 1022.18 1022.16 1022.18 1022.20 1022.18 1022.09 1021.89 1021.58 1021.15 1020.62 1020.03 1019.42 1018.81 1018.24 1017.71 1017.22 1016.75 1016.28 1015.78 1015.24 1014.66 1014.05 1013.43 1012.84 1012.29 1011.82 1011.43 1011.13 1010.91 1010.75 1010.63 1010.52 1010.42 1010.31
1022.75 1022.78 1022.77 1022.71 1022.59 1022.43 1022.24 1022.05 1021.90 1021.80 1021.75 1021.74 1021.74 1021.72 1021.64 1021.45 1021.14 1020.71 1020.19 1019.60 1018.98 1018.36 1017.78 1017.24 1016.73 1016.24 1015.74 1015.22 1014.66 1014.05 1013.42 1012.79 1012.18 1011.63 1011.16 1010.77 1010.47 1010.25 1010.08 1009.96 1009.85 1009.75 1009.65
1022.85 1022.86 1022.81 1022.69 1022.50 1022.27 1022.01 1021.76 1021.54 1021.38 1021.29 1021.24 1021.22 1021.17 1021.07 1020.87 1020.56 1020.14 1019.62 1019.05 1018.44 1017.84 1017.27 1016.74 1016.23 1015.73 1015.23 1014.69 1014.11 1013.49 1012.84 1012.19 1011.57 1011.01 1010.52 1010.12 1009.80 1009.56 1009.37 1009.22 1009.09 1008.98 1008.86
1022.88 1022.84 1022.74 1022.57 1022.33 1022.04 1021.72 1021.41 1021.14 1020.93 1020.79 1020.69 1020.63 1020.54 1020.41 1020.19 1019.87 1019.45 1018.95 1018.40 1017.82 1017.25 1016.71 1016.20 1015.71 1015.22 1014.71 1014.17 1013.57 1012.94 1012.29 1011.63 1010.99 1010.42 1009.91 1009.49 1009.14 1008.86 1008.63 1008.44 1008.27 1008.13 1007.99
1022.77 1022.69 1022.54 1022.32 1022.03 1021.70 1021.34 1020.99 1020.68 1020.43 1020.25 1020.11 1019.99 1019.87 1019.69 1019.45 1019.12 1018.70 1018.21 1017.68 1017.13 1016.60 1016.09 1015.60 1015.13 1014.65 1014.14 1013.60 1013.00 1012.37 1011.71 1011.04 1010.41 1009.82 1009.30 1008.85 1008.48 1008.16 1007.89 1007.65 1007.43 1007.25 1007.09
1022.50 1022.37 1022.19 1021.93 1021.62 1021.26 1020.88 1020.52 1020.18 1019.91 1019.68 1019.50 1019.34 1019.17 1018.95 1018.67 1018.32 1017.89 1017.40 1016.89 1016.37 1015.86 1015.37 1014.90 1014.44 1013.97 1013.47 1012.93 1012.34 1011.71 1011.05 1010.40 1009.77 1009.20 1008.68 1008.22 1007.83 1007.48 1007.16 1006.88 1006.62 1006.39 1006.20
1022.09 1021.93 1021.71 1021.43 1021.11 1020.75 1020.37 1020.00 1019.66 1019.37 1019.11 1018.90 1018.69 1018.46 1018.20 1017.88 1017.49 1017.04 1016.55 1016.03 1015.52 1015.02 1014.54 1014.07 1013.62 1013.15 1012.65 1012.11 1011.53 1010.92 1010.29 1009.66 1009.07 1008.52 1008.02 1007.58 1007.19 1006.82 1006.49 1006.17 1005.87 1005.60 1005.37
1021.60 1021.40 1021.16 1020.88 1020.56 1020.20 1019.83 1019.47 1019.13 1018.82 1018.55 1018.29 1018.04 1017.76 1017.44 1017.07 1016.64 1016.16 1015.64 1015.11 1014.58 1014.06 1013.57 1013.10 1012.63 1012.15 1011.65 1011.12 1010.56 1009.98 1009.39 1008.82 1008.28 1007.79 1007.34 1006.94 1006.56 1006.21 1005.87 1005.53 1005.21 1004.91 1004.65
1021.06 1020.85 1020.61 1020.33 1020.01 1019.66 1019.30 1018.95 1018.60 1018.28 1017.97 1017.68 1017.37 1017.04 1016.66 1016.24 1015.76 1015.23 1014.68 1014.11 1013.55 1013.01 1012.49 1011.99 1011.49 1011.00 1010.50 1009.98 1009.45 1008.91 1008.38 1007.88 1007.41 1007.00 1006.62 1006.28 1005.95 1005.63 1005.31 1004.97 1004.64 1004.32 1004.03
1020.55 1020.34 1020.09 1019.81 1019.50 1019.16 1018.79 1018.43 1018.07 1017.72 1017.38 1017.03 1016.68 1016.29 1015.85 1015.37 1014.84 1014.26 1013.66 1013.05 1012.45 1011.87 1011.31 1010.77 1010.25 1009.74 1009.24 1008.73 1008.23 1007.74 1007.29 1006.87 1006.49 1006.16 1005.87 1005.60 1005.34 1005.08 1004.79 1004.48 1004.15 1003.83 1003.53
1020.09 1019.88 1019.64 1019.35 1019.02 1018.66 1018.29 1017.89 1017.50 1017.11 1016.73 1016.33 1015.92 1015.48 1014.99 1014.46 1013.88 1013.26 1012.62 1011.97 1011.33 1010.70 1010.10 1009.53 1008.98 1008.45 1007.94 1007.45 1006.99 1006.56 1006.17 1005.83 1005.54 1005.30 1005.10 1004.92 1004.73 1004.52 1004.29 1004.01 1003.71 1003.40 1003.11
1019.69 1019.47 1019.21 1018.90 1018.55 1018.16 1017.74 1017.31 1016.87 1016.44 1016.00 1015.56 1015.10 1014.61 1014.09 1013.52 1012.91 1012.26 1011.59 1010.91 1010.23 1009.57 1008.94 1008.34 1007.77 1007.22 1006.72 1006.24 1005.81 1005.42 1005.09 1004.82 1004.61 1004.45 1004.32 1004.21 1004.09 1003.95 1003.77 1003.55 1003.30 1003.02 1002.75
1019.30 1019.07 1018.78 1018.43 1018.03 1017.59 1017.13 1016.64 1016.16 1015.68 1015.20 1014.73 1014.24 1013.72 1013.17 1012.59 1011.97 1011.31 1010.63 1009.93 1009.24 1008.56 1007.91 1007.28 1006.69 1006.14 1005.64 1005.17 1004.77 1004.41 1004.13 1003.90 1003.74 1003.64 1003.56 1003.51 1003.45 1003.36 1003.25 1003.08 1002.89 1002.66 1002.44
Thickness
5642 5639 5636 5633 5631 5629 5626 5625 5623 5621 5620 5619 5618 5617 5616 5616 5615 5615 5615 5615 5615 5615 5616 5617 5618 5618 5619 5619 5619 5620 5620 5621 5621 5621 5621 5621 5621 5621 5621 5620 5620 5620 5620
5639 5636 5632 5630 5627 5625 5622 5620 5618 5616 5614 5613 5612 5612 5611 5610 5609 5609 5609 5609 5609 5609 5609 5610 5610 5611 5611 5612 5612 5613 5613 5614 5614 5615 5615 5615 5615 5615 5615 5615 5615 5614 5614
5635 5631 5628 5625 5623 5620 5618 5615 5613 5611 5609 5607 5607 5606 5605 5605 5604 5604 5604 5603 5603 5603 5602 5603 5603 5603 5604 5604 5604 5605 5605 5606 5606 5607 5608 5609 5609 5609 5610 5610 5610 5609 5609
5630 5626 5623 5620 5617 5614 5611 5609 5606 5604 5602 5601 5600 5599 5599 5598 5599 5599 5598 5598 5598 5597 5596 5595 5595 5595 5596 5596 5596 5596 5596 5597 5598 5598 5599 5601 5602 5603 5604 5604 5604 5604 5604
5624 5620 5617 5613 5610 5607 5604 5601 5599 5596 5594 5593 5592 5592 5592 5592 5593 5593 5593 5592 5591 5590 5589 5588 5587 5587 5587 5587 5587 5587 5587 5588 5588 5589 5590 5592 5593 5595 5596 5597 5598 5599 5599
5617 5614 5610 5606 5603 5599 5596 5593 5591 5588 5586 5584 5585 5585 5585 5586 5587 5587 5586 5585 5585 5583 5582 5581 5579 5578 5577 5577 5577 5577 5577 5578 5579 5579 5580 5581 5583 5585 5587 5589 5590 5591 5592
5610 5606 5602 5598 5595 5591 5588 5585 5582 5580 5577 5576 5574 5575 5578 5579 5580 5580 5578 5577 5576 5575 5573 5571 5570 5568 5566 5565 5565 5565 5566 5566 5567 5568 5569 5570 5571 5573 5575 5577 5579 5581 5583
5602 5599 5594 5590 5586 5582 5579 5576 5573 5570 5568 5566 5563 5562 5563 5567 5569 5572 5569 5567 5566 5564 5562 5560 5558 5556 5555 5553 5552 5552 5552 5553 5554 5555 5556 5557 5558 5560 5561 5563 5566 5568 5571
5595 5591 5586 5582 5578 5574 5570 5567 5565 5561 5558 5555 5552 5549 5547 5549 5553 5561 5560 5558 5554 5551 5549 5547 5545 5543 5541 5540 5540 5539 5538 5539 5540 5541 5542 5543 5544 5546 5547 5549 5551 5553 5556
5585 5581 5578 5574 5570 5566 5562 5559 5556 5552 5549 5545 5542 5538 5535 5534 5532 5542 5547 5546 5544 5541 5538 5536 5533 5530 5528 5526 5525 5525 5524 5525 5526 5527 5528 5528 5529 5531 5532 5533 5535 5537 5540
5575 5572 5568 5564 5560 5557 5553 5550 5547 5543 5539 5536 5532 5528 5525 5521 5517 5515 5527 5532 5531 5529 5526 5523 5520 5517 5514 5511 5510 5509 5508 5509 5509 5510 5511 5511 5512 5514 5515 5516 5517 5519 5521
5565 5562 5558 5555 5551 5547 5544 5541 5538 5533 5529 5526 5522 5518 5513 5509 5507 5502 5505 5513 5515 5517 5514 5511 5507 5503 5499 5496 5493 5491 5490 5490 5490 5490 5491 5491 5492 5493 5495 5496 5497 5498 5500
5554 5552 5548 5545 5541 5538 5535 5531 5528 5524 5520 5516 5512 5508 5504 5500 5496 5492 5491 5496 5498 5501 5499 5496 5492 5487 5482 5479 5475 5472 5470 5469 5468 5468 5468 5468 5469 5470 5472 5474 5475 5476 5477
5544 5542 5538 5534 5531 5528 5524 5521 5517 5513 5510 5505 5501 5497 5492 5488 5483 5478 5473 5472 5479 5486 5482 5479 5474 5468 5462 5458 5454 5451 5449 5446 5445 5444 5444 5444 5445 5445 5447 5449 5450 5452 5453
5535 5532 5528 5524 5521 5517 5514 5510 5506 5503 5499 5494 5490 5485 5480 5477 5471 5465 5459 5452 5447 5457 5470 5464 5454 5449 5441 5437 5433 5429 5427 5423 5422 5420 5420 5420 5420 5421 5422 5423 5425 5427 5429
5525 5521 5517 5514 5510 5507 5503 5499 5495 5492 5488 5484 5479 5474 5469 5464 5459 5452 5445 5438 5431 5428 5441 5448 5437 5428 5420 5414 5410 5406 5404 5401 5399 5398 5397 5396 5397 5397 5399 5401 5403 5405 5408
5514 5510 5506 5503 5499 5496 5492 5488 5484 5481 5476 5473 5468 5463 5458 5452 5445 5439 5432 5425 5417 5409 5414 5430 5420 5410 5401 5393 5389 5384 5381 5379 5378 5377 5377 5378 5379 5380 5382 5384 5386 5388 5391
5503 5499 5495 5491 5488 5485 5481 5477 5473 5470 5465 5460 5455 5450 5444 5439 5432 5425 5417 5410 5403 5395 5391 5400 5404 5392 5383 5375 5370 5366 5363 5362 5361 5361 5362 5363 5365 5367 5369 5371 5374 5376 5378
5493 5489 5484 5480 5477 5473 5469 5465 5461 5457 5452 5447 5442 5436 5430 5423 5417 5410 5403 5395 5388 5382 5375 5374 5380 5375 5368 5360 5354 5351 5349 5348 5347 5348 5350 5352 5354 5356 5359 5361 5364 5366 5368
5482 5478 5474 5470 5466 5462 5457 5453 5449 5444 5440 5434 5428 5422 5415 5408 5402 5395 5388 5381 5374 5368 5361 5357 5358 5358 5353 5346 5340 5338 5339 5337 5338 5338 5340 5342 5344 5346 5349 5351 5354 5356 5358
5471 5467 5463 5459 5454 5450 5445 5441 5437 5433 5428 5423 5416 5409 5401 5394 5387 5380 5375 5368 5360 5353 5347 5342 5342 5341 5339 5333 5329 5328 5329 5330 5331 5330 5331 5333 5334 5336 5338 5340 5342 5345 5347
5460 5456 5451 5447 5443 5439 5436 5432 5428 5423 5416 5409 5402 5395 5387 5379 5372 5366 5359 5352 5345 5338 5333 5329 5329 5328 5328 5324 5321 5320 5320 5322 5326 5326 5324 5327 5326 5328 5330 5331 5334 5337 5340
5450 5445 5441 5436 5432 5428 5424 5420 5416 5410 5403 5394 5386 5379 5372 5364 5356 5348 5343 5338 5332 5325 5320 5318 5318 5319 5318 5317 5314 5314 5314 5315 5319 5320 5317 5323 5322 5323 5325 5326 5328 5330 5333
5440 5435 5431 5426 5421 5416 5412 5408 5402 5397 5389 5380 5371 5362 5355 5348 5339 5333 5330 5327 5322 5317 5312 5310 5309 5311 5311 5311 5310 5310 5311 5313 5316 5316 5313 5317 5319 5319 5320 5320 5322 5324 5326
5430 5425 5420 5415 5409 5404 5398 5392 5387 5381 5374 5366 5357 5347 5338 5332 5328 5321 5318 5315 5314 5311 5309 5308 5308 5309 5310 5310 5309 5308 5308 5308 5313 5315 5312 5311 5314 5313 5314 5314 5315 5317 5319
5420 5415 5410 5403 5396 5390 5384 5377 5370 5363 5358 5352 5344 5335 5325 5319 5316 5311 5307 5304 5305 5305 5303 5304 5303 5304 5304 5303 5304 5302 5301 5302 5306 5309 5308 5305 5306 5305 5308 5307 5308 5308 5309